Location: Mexico
(19.4000°N, 99.1500°W)
Time: 21:14:37
(UTC-06:00)

ISS - Pass Details

Date: 16 November 2019
Orbit: 412 x 421 km, 51.6° (Epoch: 12 November)

Event Time Altitude Azimuth Distance (km) Brightness Sun altitude
Exits shadow 05:48:42 24° 300° (WNW) 902 -2.7 -13.5°
Maximum altitude 05:50:26 53° 233° (SW) 518 -3.6 -13.1°
Drops below altitude 10° 05:53:41 10° 155° (SSE) 1,483 -0.4 -12.4°
Sets 05:55:48 0° 150° (SSE) 2,343 0.8 -11.9°
